EW7844 Weather Reports


time (UTC)temp
F
wind
direction
speed
knots
gust
knots
rain 1hr
in
rain 24hr
in
rain mn
in
humidity
%
barometer
mb
20260506033504 69 142 0.0 0.9 0.00 0.00 0.00 52 1013.7
20260506033006 69 142 0.0 0.9 0.00 0.00 0.00 52 1013.8
20260506032503 69 0 0.0 0.0 0.00 0.00 0.00 51 1013.8
20260506032008 69 113 0.0 0.9 0.00 0.00 0.00 51 1013.8
20260506031503 70 123 0.0 0.9 0.00 0.00 0.00 50 1013.8
20260506031006 70 130 0.0 0.9 0.00 0.00 0.00 49 1013.9
20260506030503 70 12 0.0 0.9 0.00 0.00 0.00 50 1013.8
20260506030007 70 12 0.0 0.9 0.00 0.00 0.00 49 1013.8
20260506025503 70 0 0.0 0.0 0.00 0.00 0.00 50 1013.9
20260506025007 70 0 0.0 0.0 0.00 0.00 0.00 49 1013.9
20260506024006 70 0 0.0 0.0 0.00 0.00 0.00 51 1014.0
20260506023504 70 107 0.0 0.9 0.00 0.00 0.00 51 1013.9
20260506023006 70 69 0.0 0.9 0.00 0.00 0.00 51 1013.8
20260506022503 70 62 0.0 0.9 0.00 0.00 0.00 51 1013.7
20260506022006 70 90 0.0 0.9 0.00 0.00 0.00 53 1013.7
20260506021503 70 90 0.0 0.9 0.00 0.00 0.00 52 1013.6
20260506021008 70 0 0.0 0.0 0.00 0.00 0.00 53 1013.7
20260506020503 70 0 0.0 0.0 0.00 0.00 0.00 52 1013.6
20260506020006 70 0 0.0 0.0 0.00 0.00 0.00 52 1013.7
20260506015006 70 0 0.0 0.0 0.00 0.00 0.00 52 1013.6
20260506014007 70 0 0.0 0.0 0.00 0.00 0.00 53 1013.5
20260506013503 70 0 0.0 0.0 0.00 0.00 0.00 52 1013.7
20260506013007 70 0 0.0 0.0 0.00 0.00 0.00 52 1013.6
20260506012503 70 326 0.0 1.7 0.00 0.00 0.00 52 1013.5
20260506012006 70 326 0.0 1.7 0.00 0.00 0.00 51 1013.4
20260506011504 70 0 0.0 0.0 0.00 0.00 0.00 50 1013.3
20260506011006 70 0 0.0 0.0 0.00 0.00 0.00 50 1013.3
20260506010006 71 78 0.0 0.9 0.00 0.00 0.00 49 1013.3
20260506005503 71 83 0.0 1.7 0.00 0.00 0.00 48 1013.3
20260506004503 71 79 0.0 3.5 0.00 0.00 0.00 48 1013.3
20260506004007 72 139 0.0 0.9 0.00 0.00 0.00 46 1013.4
20260506003503 72 41 0.0 0.9 0.00 0.00 0.00 47 1013.5
20260506003007 72 79 0.0 0.9 0.00 0.00 0.00 46 1013.4
20260506002503 72 123 0.0 0.9 0.00 0.00 0.00 47 1013.3
20260506002008 73 122 0.0 0.9 0.00 0.00 0.00 47 1013.3
20260506001503 73 74 0.0 2.6 0.00 0.00 0.00 46 1013.3
20260506001007 73 72 0.0 2.6 0.00 0.00 0.00 47 1013.4
20260506000503 73 93 0.0 3.5 0.00 0.00 0.00 48 1013.5
20260506000007 73 96 0.0 3.5 0.00 0.00 0.00 50 1013.5
20260505235503 73 77 0.0 2.6 0.00 0.00 0.00 50 1013.4
20260505235007 73 79 0.0 2.6 0.00 0.00 0.00 50 1013.4
20260505234503 73 29 0.0 1.7 0.00 0.00 0.00 50 1013.4
20260505234008 74 18 0.0 1.7 0.00 0.00 0.00 48 1013.4
20260505233504 74 0 0.0 0.0 0.00 0.00 0.00 47 1013.4
20260505233008 75 0 0.0 0.0 0.00 0.00 0.00 47 1013.4
20260505232504 75 0 0.0 0.0 0.00 0.00 0.00 45 1013.3
20260505232006 76 0 0.0 0.0 0.00 0.00 0.00 43 1013.4
20260505231503 76 0 0.0 0.0 0.00 0.00 0.00 43 1013.3
20260505231007 76 281 0.0 0.9 0.00 0.00 0.00 42 1013.2
20260505230503 77 262 0.0 0.9 0.00 0.00 0.00 41 1013.1
20260505230007 77 123 0.0 0.9 0.00 0.00 0.00 42 1013.1
20260505225505 77 123 0.0 0.9 0.00 0.00 0.00 40 1013.2
20260505225007 77 118 0.0 0.9 0.00 0.00 0.00 40 1013.3
20260505224503 77 122 0.0 0.9 0.00 0.00 0.00 41 1013.2
20260505224006 77 125 0.0 0.9 0.00 0.00 0.00 40 1013.4
20260505223503 78 198 0.0 0.9 0.00 0.00 0.00 41 1013.5
20260505223007 78 132 0.0 1.7 0.00 0.00 0.00 39 1013.3
20260505222503 78 115 0.0 1.7 0.00 0.00 0.00 41 1013.4
20260505222006 78 69 0.0 1.7 0.00 0.00 0.00 39 1013.3
20260505221504 78 43 0.0 1.7 0.00 0.00 0.00 39 1013.4
20260505221007 78 154 0.0 0.9 0.00 0.00 0.00 40 1013.4
20260505220503 79 131 0.0 2.6 0.00 0.00 0.00 40 1013.3
20260505220007 79 125 0.0 2.6 0.00 0.00 0.00 37 1013.1
20260505215503 79 132 0.0 0.9 0.00 0.00 0.00 39 1013.1
20260505215007 80 131 0.0 0.9 0.00 0.00 0.00 38 1013.3
20260505214007 80 128 0.9 4.3 0.00 0.00 0.00 35 1013.3
20260505213504 81 158 0.9 6.1 0.00 0.00 0.00 35 1013.3
20260505213007 82 140 0.9 6.1 0.00 0.00 0.00 34 1013.3
20260505212503 82 107 0.0 4.3 0.00 0.00 0.00 34 1013.3
20260505212007 82 113 0.9 4.3 0.00 0.00 0.00 34 1013.5
20260505211503 82 113 0.9 3.5 0.00 0.00 0.00 32 1013.5
20260505210504 83 167 0.0 2.6 0.00 0.00 0.00 34 1013.5
20260505210007 83 169 0.0 2.6 0.00 0.00 0.00 32 1013.5
20260505205503 84 152 0.0 1.7 0.00 0.00 0.00 34 1013.6
20260505205007 84 120 0.0 1.7 0.00 0.00 0.00 33 1013.6
20260505204008 83 129 0.9 5.2 0.00 0.00 0.00 33 1013.7
20260505203504 83 123 0.9 5.2 0.00 0.00 0.00 34 1013.9
20260505202503 82 193 0.0 2.6 0.00 0.00 0.00 35 1013.9
20260505202007 83 129 0.0 2.6 0.00 0.00 0.00 34 1013.9
20260505201007 83 97 0.0 3.5 0.00 0.00 0.00 34 1014.1
20260505200503 82 58 0.9 8.7 0.00 0.00 0.00 35 1014.1
20260505200007 82 62 0.9 8.7 0.00 0.00 0.00 35 1014.1
20260505195503 82 106 0.9 5.2 0.00 0.00 0.00 34 1014.3
20260505195007 83 140 0.9 2.6 0.00 0.00 0.00 32 1014.5
20260505194503 83 168 0.0 2.6 0.00 0.00 0.00 34 1014.6
20260505194007 83 137 0.0 3.5 0.00 0.00 0.00 36 1014.8
20260505193504 82 126 0.9 3.5 0.00 0.00 0.00 35 1014.7
20260505193009 82 98 0.0 1.7 0.00 0.00 0.00 36 1014.7
20260505192503 82 158 0.0 2.6 0.00 0.00 0.00 36 1014.7
20260505192007 82 183 0.0 2.6 0.00 0.00 0.00 37 1014.6
20260505190007 81 149 0.9 3.5 0.00 0.00 0.00 35 1014.8
20260505185007 82 104 0.9 5.2 0.00 0.00 0.00 34 1014.7
20260505184503 81 129 0.9 5.2 0.00 0.00 0.00 33 1014.9
20260505183003 81 156 0.9 4.3 0.00 0.00 0.00 37 1014.9
20260505182508 81 137 0.9 4.3 0.00 0.00 0.00 35 1015.0
20260505181507 83 121 0.9 4.3 0.00 0.00 0.00 36 1015.2
20260505181003 83 104 0.9 4.3 0.00 0.00 0.00 36 1015.2
20260505180507 82 107 0.0 3.5 0.00 0.00 0.00 36 1015.4
20260505175003 82 129 0.9 4.3 0.00 0.00 0.00 34 1015.7
20260505174505 82 108 0.9 5.2 0.00 0.00 0.00 36 1015.7
20260505173507 82 104 0.9 3.5 0.00 0.00 0.00 38 1016.0
20260505173002 82 150 0.9 4.3 0.00 0.00 0.00 40 1015.9
20260505172506 81 144 0.9 8.7 0.00 0.00 0.00 41 1016.0
20260505172002 81 112 0.9 8.7 0.00 0.00 0.00 38 1016.0
20260505171506 82 98 0.9 5.2 0.00 0.00 0.00 38 1016.0
20260505171002 82 92 0.0 4.3 0.00 0.00 0.00 38 1016.1
20260505170505 81 137 0.9 4.3 0.00 0.00 0.00 37 1016.1
20260505165507 81 137 0.0 2.6 0.00 0.00 0.00 39 1016.0
20260505165002 80 133 0.9 2.6 0.00 0.00 0.00 38 1016.0
20260505164506 80 133 0.9 7.0 0.00 0.00 0.00 40 1016.0
20260505163506 80 145 1.7 7.0 0.00 0.00 0.00 38 1015.8
20260505163002 80 144 0.9 7.0 0.00 0.00 0.00 39 1015.8
20260505162506 80 103 0.9 6.1 0.00 0.00 0.00 40 1015.9
20260505162002 79 115 0.9 6.1 0.00 0.00 0.00 40 1016.0
20260505161506 79 140 0.9 3.5 0.00 0.00 0.00 39 1015.9
20260505161002 79 103 0.9 6.1 0.00 0.00 0.00 42 1016.1
20260505160506 78 79 0.9 6.1 0.00 0.00 0.00 41 1016.2
20260505153002 76 108 0.0 1.7 0.00 0.00 0.00 53 1016.4
20260505152507 75 77 0.0 2.6 0.00 0.00 0.00 50 1016.4
20260505152002 74 83 0.9 2.6 0.00 0.00 0.00 50 1016.3
20260505151506 74 51 0.9 2.6 0.00 0.00 0.00 50 1016.3
20260505151002 74 12 0.0 2.6 0.00 0.00 0.00 53 1016.3
20260505150506 73 341 0.0 2.6 0.00 0.00 0.00 54 1016.5
20260505140506 70 349 0.0 2.6 0.00 0.00 0.00 62 1016.6
20260505124506 56 77 0.0 1.7 0.00 0.00 0.00 85 1015.8
20260505123506 54 9 0.0 2.6 0.00 0.00 0.00 87 1015.7
20260505123002 54 9 0.0 2.6 0.00 0.00 0.00 90 1015.7
20260505122002 52 0 0.0 0.0 0.00 0.00 0.00 96 1015.5
20260505121505 51 91 0.0 1.7 0.00 0.00 0.00 97 1015.6
20260505121002 50 91 0.0 1.7 0.00 0.00 0.00 97 1015.6
20260505120506 50 0 0.0 0.0 0.00 0.00 0.00 97 1015.5
20260505115505 49 0 0.0 0.0 0.00 0.00 0.00 97 1015.5
20260505115002 48 0 0.0 0.0 0.00 0.00 0.00 97 1015.4
20260505114506 48 0 0.0 0.0 0.00 0.00 0.00 97 1015.3
20260505113506 47 0 0.0 0.0 0.00 0.00 0.00 96 1015.1
20260505112506 47 0 0.0 0.0 0.00 0.00 0.00 96 1015.0
20260505112002 47 0 0.0 0.0 0.00 0.00 0.00 96 1014.8
20260505111507 46 0 0.0 0.0 0.00 0.00 0.00 96 1014.6
20260505111002 46 0 0.0 0.0 0.00 0.00 0.00 96 1014.5
20260505110506 46 0 0.0 0.0 0.00 0.00 0.00 96 1014.6
20260505102002 46 0 0.0 0.0 0.00 0.00 0.00 96 1014.5
20260505101506 46 0 0.0 0.0 0.00 0.00 0.00 95 1014.4
20260505101002 47 0 0.0 0.0 0.00 0.00 0.00 95 1014.4
20260505100506 47 0 0.0 0.0 0.00 0.00 0.00 95 1014.5
20260505100002 47 0 0.0 0.0 0.00 0.00 0.00 96 1014.6
20260505095506 47 0 0.0 0.0 0.00 0.00 0.00 96 1014.6
20260505095002 48 0 0.0 0.0 0.00 0.00 0.00 96 1014.7
20260505094003 47 0 0.0 0.0 0.00 0.00 0.00 96 1014.5
20260505093507 47 0 0.0 0.0 0.00 0.00 0.00 96 1014.5
20260505093002 47 0 0.0 0.0 0.00 0.00 0.00 96 1014.4
20260505092506 47 0 0.0 0.0 0.00 0.00 0.00 95 1014.4
20260505092002 47 0 0.0 0.0 0.00 0.00 0.00 95 1014.4
20260505091506 47 0 0.0 0.0 0.00 0.00 0.00 95 1014.4
20260505090506 47 0 0.0 0.0 0.00 0.00 0.00 95 1014.7
20260505085505 48 0 0.0 0.0 0.00 0.00 0.00 95 1014.7
20260505085003 48 0 0.0 0.0 0.00 0.00 0.00 95 1014.8
20260505084506 48 0 0.0 0.0 0.00 0.00 0.00 95 1014.8
20260505084002 48 0 0.0 0.0 0.00 0.00 0.00 94 1014.8
20260505083507 48 0 0.0 0.0 0.00 0.00 0.00 94 1014.7
20260505083002 48 0 0.0 0.0 0.00 0.00 0.00 94 1014.7
20260505082505 48 0 0.0 0.0 0.00 0.00 0.00 94 1014.7
20260505081506 48 0 0.0 0.0 0.00 0.00 0.00 94 1014.7
20260505081002 48 0 0.0 0.0 0.00 0.00 0.00 94 1014.7
20260505080506 48 0 0.0 0.0 0.00 0.00 0.00 93 1014.8
20260505080002 48 0 0.0 0.0 0.00 0.00 0.00 93 1014.7
20260505075506 48 0 0.0 0.0 0.00 0.00 0.00 93 1014.7
20260505075002 48 0 0.0 0.0 0.00 0.00 0.00 94 1014.7
20260505074506 48 0 0.0 0.0 0.00 0.00 0.00 93 1014.7
20260505074003 48 0 0.0 0.0 0.00 0.00 0.00 93 1014.7
20260505073002 48 0 0.0 0.0 0.00 0.00 0.00 92 1014.8
20260505072505 48 0 0.0 0.0 0.00 0.00 0.00 92 1014.8
20260505072002 48 0 0.0 0.0 0.00 0.00 0.00 93 1014.8
20260505071505 48 0 0.0 0.0 0.00 0.00 0.00 93 1014.8
20260505071002 48 0 0.0 0.0 0.00 0.00 0.00 92 1014.7
20260505070505 48 0 0.0 0.0 0.00 0.00 0.00 92 1014.7
20260505070002 48 0 0.0 0.0 0.00 0.00 0.00 91 1014.8
20260505065505 49 0 0.0 0.0 0.00 0.00 0.00 91 1014.8
20260505065002 49 0 0.0 0.0 0.00 0.00 0.00 91 1014.7
20260505064506 49 0 0.0 0.0 0.00 0.00 0.00 91 1014.7
20260505064002 49 0 0.0 0.0 0.00 0.00 0.00 91 1014.7
20260505063506 49 0 0.0 0.0 0.00 0.00 0.00 91 1014.7
20260505063002 49 0 0.0 0.0 0.00 0.00 0.00 90 1014.8
20260505062506 49 0 0.0 0.0 0.00 0.00 0.00 90 1014.8
20260505062002 49 0 0.0 0.0 0.00 0.00 0.00 90 1014.8
20260505061506 49 0 0.0 0.0 0.00 0.00 0.00 88 1014.9
20260505061002 50 0 0.0 0.0 0.00 0.00 0.00 88 1014.9
20260505060506 50 0 0.0 0.0 0.00 0.00 0.00 88 1014.9
20260505060002 50 0 0.0 0.0 0.00 0.00 0.00 87 1014.9
20260505055505 50 0 0.0 0.0 0.00 0.00 0.00 87 1014.9
20260505055002 50 0 0.0 0.0 0.00 0.00 0.00 87 1015.0
20260505054506 50 0 0.0 0.0 0.00 0.00 0.00 88 1015.1
20260505054002 50 0 0.0 0.0 0.00 0.00 0.00 88 1015.1
20260505053505 50 0 0.0 0.0 0.00 0.00 0.00 87 1015.1
20260505052505 50 0 0.0 0.0 0.00 0.00 0.00 86 1015.0
20260505052003 50 0 0.0 0.0 0.00 0.00 0.00 84 1015.0
20260505051506 51 0 0.0 0.0 0.00 0.00 0.00 84 1015.0
20260505050506 51 0 0.0 0.0 0.00 0.00 0.00 84 1015.0
20260505041506 54 0 0.0 0.0 0.00 0.00 0.00 79 1014.8
20260505041002 54 0 0.0 0.0 0.00 0.00 0.00 79 1014.7
20260505040506 54 0 0.0 0.0 0.00 0.00 0.00 78 1014.8
20260505040005 54 0 0.0 0.0 0.00 0.00 0.00 79 1014.8
20260505035002 54 0 0.0 0.0 0.00 0.00 0.00 78 1014.9
20260505034506 54 0 0.0 0.0 0.00 0.00 0.00 77 1014.8
20260505034002 54 0 0.0 0.0 0.00 0.00 0.00 77 1014.9